Back to catalog

STARLINK-1329

AliveCommunicationsVLEO
NORAD 45531·PAYLOAD·🇺🇸 United States

Launched Apr 22, 2020 from Cape Canaveral Space Force Station

Loading…

Next Passes (next 24 hours)

TLE

FreshSource: CelesTrak SupGP

Epoch: Sep 14, 2026, 14:38 UTC

1 45531C 20025A   26257.61020833  .00129670  00000+0  35054-3 0  2573
2 45531  53.0317 220.5921 0004490  79.8646  42.3028 15.93469488    14

Track STARLINK-1329 in real time with AllMySat

Download on the App Store